Time,TemperatureF,DewpointF,PressureIn,WindDirection,WindDirectionDegrees,WindSpeedMPH,WindSpeedGustMPH,Humidity,HourlyPrecipIn,Conditions,Clouds,dailyrainin,SoftwareType,DateUTC
2013-05-14 00:01:00,70.2,55.3,30.12,North,0,0.0,0.0,59,0.00,,,0.00,WUHU216HW,2013-05-14 04:01:00,
2013-05-14 00:06:00,70.0,55.1,30.11,North,0,0.0,0.0,59,0.00,,,0.00,WUHU216HW,2013-05-14 04:06:00,
2013-05-14 00:11:00,69.8,54.9,30.12,North,0,0.0,0.0,59,0.00,,,0.00,WUHU216HW,2013-05-14 04:11:00,
2013-05-14 00:16:00,69.7,55.3,30.11,North,0,0.0,0.0,60,0.00,,,0.00,WUHU216HW,2013-05-14 04:16:00,
2013-05-14 00:21:00,69.5,55.1,30.11,North,0,0.0,0.0,60,0.00,,,0.00,WUHU216HW,2013-05-14 04:21:00,
2013-05-14 00:26:00,69.3,54.9,30.12,North,0,0.0,0.0,60,0.00,,,0.00,WUHU216HW,2013-05-14 04:26:00,
2013-05-14 00:31:00,69.1,55.2,30.11,North,0,0.0,0.0,61,0.00,,,0.00,WUHU216HW,2013-05-14 04:31:00,
2013-05-14 00:36:00,69.1,55.2,30.12,North,0,0.0,0.0,61,0.00,,,0.00,WUHU216HW,2013-05-14 04:36:00,
2013-05-14 00:41:00,69.1,55.2,30.11,North,0,0.0,0.0,61,0.00,,,0.00,WUHU216HW,2013-05-14 04:41:00,
2013-05-14 00:46:00,68.8,54.4,30.12,North,0,0.0,0.0,60,0.00,,,0.00,WUHU216HW,2013-05-14 04:46:00,
2013-05-14 00:51:00,68.6,54.6,30.11,North,0,0.0,0.0,61,0.00,,,0.00,WUHU216HW,2013-05-14 04:51:00,
2013-05-14 00:56:00,68.4,54.5,30.12,North,0,0.0,0.0,61,0.00,,,0.00,WUHU216HW,2013-05-14 04:56:00,
2013-05-14 01:01:00,68.2,54.3,30.12,North,0,0.0,0.0,61,0.00,,,0.00,WUHU216HW,2013-05-14 05:01:00,
2013-05-14 01:06:00,68.0,54.6,30.12,North,0,0.0,0.0,62,0.00,,,0.00,WUHU216HW,2013-05-14 05:06:00,
2013-05-14 01:11:00,67.9,54.4,30.12,North,0,0.0,0.0,62,0.00,,,0.00,WUHU216HW,2013-05-14 05:11:00,
2013-05-14 01:16:00,67.9,54.8,30.12,North,0,0.0,0.0,63,0.00,,,0.00,WUHU216HW,2013-05-14 05:16:00,
2013-05-14 01:21:00,67.9,54.8,30.11,North,0,0.0,0.0,63,0.00,,,0.00,WUHU216HW,2013-05-14 05:21:00,
2013-05-14 01:26:00,67.7,54.6,30.11,North,0,0.0,0.0,63,0.00,,,0.00,WUHU216HW,2013-05-14 05:26:00,
2013-05-14 01:31:00,67.7,54.6,30.11,North,0,0.0,0.0,63,0.00,,,0.00,WUHU216HW,2013-05-14 05:31:00,
2013-05-14 01:36:00,67.7,54.6,30.11,North,0,0.0,0.0,63,0.00,,,0.00,WUHU216HW,2013-05-14 05:36:00,
2013-05-14 01:41:00,67.3,54.3,30.11,North,0,0.0,0.0,63,0.00,,,0.00,WUHU216HW,2013-05-14 05:41:00,
2013-05-14 01:46:00,67.3,54.3,30.11,North,0,0.0,0.0,63,0.00,,,0.00,WUHU216HW,2013-05-14 05:46:00,
2013-05-14 01:51:00,67.1,54.1,30.11,North,0,0.0,0.0,63,0.00,,,0.00,WUHU216HW,2013-05-14 05:51:00,
2013-05-14 01:56:00,67.1,54.1,30.11,North,0,0.0,0.0,63,0.00,,,0.00,WUHU216HW,2013-05-14 05:56:00,
2013-05-14 02:01:00,67.0,53.9,30.11,North,0,0.0,0.0,63,0.00,,,0.00,WUHU216HW,2013-05-14 06:01:00,
2013-05-14 02:06:00,66.8,54.2,30.11,North,0,0.0,0.0,64,0.00,,,0.00,WUHU216HW,2013-05-14 06:06:00,
2013-05-14 02:11:00,66.8,54.2,30.11,North,0,0.0,0.0,64,0.00,,,0.00,WUHU216HW,2013-05-14 06:11:00,
2013-05-14 02:16:00,66.8,54.2,30.11,North,0,0.0,0.0,64,0.00,,,0.00,WUHU216HW,2013-05-14 06:16:00,
2013-05-14 02:21:00,66.8,54.2,30.11,North,0,0.0,0.0,64,0.00,,,0.00,WUHU216HW,2013-05-14 06:21:00,
2013-05-14 02:26:00,66.6,54.0,30.11,North,0,0.0,0.0,64,0.00,,,0.00,WUHU216HW,2013-05-14 06:26:00,
2013-05-14 02:31:00,66.2,54.1,30.11,North,0,0.0,0.0,65,0.00,,,0.00,WUHU216HW,2013-05-14 06:31:00,
2013-05-14 02:36:00,66.1,53.9,30.11,North,0,0.0,0.0,65,0.00,,,0.00,WUHU216HW,2013-05-14 06:36:00,
2013-05-14 02:41:00,65.9,53.7,30.11,North,0,0.0,0.0,65,0.00,,,0.00,WUHU216HW,2013-05-14 06:41:00,
2013-05-14 02:46:00,65.9,53.7,30.11,North,0,0.0,0.0,65,0.00,,,0.00,WUHU216HW,2013-05-14 06:46:00,
2013-05-14 02:51:00,65.9,53.7,30.11,North,0,0.0,0.0,65,0.00,,,0.00,WUHU216HW,2013-05-14 06:51:00,
2013-05-14 02:56:00,65.9,53.7,30.11,North,0,0.0,0.0,65,0.00,,,0.00,WUHU216HW,2013-05-14 06:56:00,
2013-05-14 03:01:00,65.9,53.7,30.11,North,0,0.0,0.0,65,0.00,,,0.00,WUHU216HW,2013-05-14 07:01:00,
2013-05-14 03:06:00,65.9,53.7,30.11,North,0,0.0,0.0,65,0.00,,,0.00,WUHU216HW,2013-05-14 07:06:00,
2013-05-14 03:11:00,65.9,53.7,30.11,North,0,0.0,0.0,65,0.00,,,0.00,WUHU216HW,2013-05-14 07:11:00,
2013-05-14 03:16:00,65.9,53.7,30.11,North,0,0.0,0.0,65,0.00,,,0.00,WUHU216HW,2013-05-14 07:16:00,
2013-05-14 03:21:00,65.7,53.6,30.11,North,0,0.0,0.0,65,0.00,,,0.00,WUHU216HW,2013-05-14 07:21:00,
2013-05-14 03:26:00,65.7,54.0,30.11,North,0,0.0,0.0,66,0.00,,,0.00,WUHU216HW,2013-05-14 07:26:00,
2013-05-14 03:31:00,65.7,54.0,30.11,North,0,0.0,0.0,66,0.00,,,0.00,WUHU216HW,2013-05-14 07:31:00,
2013-05-14 03:36:00,65.5,53.8,30.11,North,0,0.0,0.0,66,0.00,,,0.00,WUHU216HW,2013-05-14 07:36:00,
2013-05-14 03:41:00,65.2,53.5,30.11,North,0,0.0,0.0,66,0.00,,,0.00,WUHU216HW,2013-05-14 07:41:00,
2013-05-14 03:46:00,65.2,53.5,30.12,North,0,0.0,0.0,66,0.00,,,0.00,WUHU216HW,2013-05-14 07:46:00,
2013-05-14 03:51:00,65.2,53.9,30.12,North,0,0.0,0.0,67,0.00,,,0.00,WUHU216HW,2013-05-14 07:51:00,
2013-05-14 03:56:00,65.0,53.3,30.12,North,0,0.0,0.0,66,0.00,,,0.00,WUHU216HW,2013-05-14 07:56:00,
2013-05-14 04:01:00,65.2,53.9,30.12,North,0,0.0,0.0,67,0.00,,,0.00,WUHU216HW,2013-05-14 08:01:00,
2013-05-14 04:06:00,65.2,53.5,30.12,North,0,0.0,0.0,66,0.00,,,0.00,WUHU216HW,2013-05-14 08:06:00,
2013-05-14 04:11:00,65.2,53.5,30.12,North,0,0.0,0.0,66,0.00,,,0.00,WUHU216HW,2013-05-14 08:11:00,
2013-05-14 04:16:00,64.8,53.2,30.12,North,0,0.0,0.0,66,0.00,,,0.00,WUHU216HW,2013-05-14 08:16:00,
2013-05-14 04:21:00,64.6,53.4,30.12,North,0,0.0,0.0,67,0.00,,,0.00,WUHU216HW,2013-05-14 08:21:00,
2013-05-14 04:26:00,64.6,53.4,30.12,North,0,0.0,0.0,67,0.00,,,0.00,WUHU216HW,2013-05-14 08:26:00,
2013-05-14 04:31:00,64.6,53.4,30.11,North,0,0.0,0.0,67,0.00,,,0.00,WUHU216HW,2013-05-14 08:31:00,
2013-05-14 04:36:00,64.4,53.3,30.11,North,0,0.0,0.0,67,0.00,,,0.00,WUHU216HW,2013-05-14 08:36:00,
2013-05-14 04:41:00,64.4,53.3,30.12,North,0,0.0,0.0,67,0.00,,,0.00,WUHU216HW,2013-05-14 08:41:00,
2013-05-14 04:47:00,64.4,53.6,30.11,North,0,0.0,0.0,68,0.00,,,0.00,WUHU216HW,2013-05-14 08:47:00,
2013-05-14 04:52:00,64.3,53.5,30.12,North,0,0.0,0.0,68,0.00,,,0.00,WUHU216HW,2013-05-14 08:52:00,
2013-05-14 04:57:00,64.1,53.3,30.12,North,0,0.0,0.0,68,0.00,,,0.00,WUHU216HW,2013-05-14 08:57:00,
2013-05-14 05:02:00,64.1,53.3,30.12,North,0,0.0,0.0,68,0.00,,,0.00,WUHU216HW,2013-05-14 09:02:00,
2013-05-14 05:07:00,64.1,53.3,30.12,North,0,0.0,0.0,68,0.00,,,0.00,WUHU216HW,2013-05-14 09:07:00,
2013-05-14 05:12:00,64.3,53.5,30.12,North,0,0.0,0.0,68,0.00,,,0.00,WUHU216HW,2013-05-14 09:12:00,
2013-05-14 05:17:00,64.3,53.5,30.12,North,0,0.0,0.0,68,0.00,,,0.00,WUHU216HW,2013-05-14 09:17:00,
2013-05-14 05:22:00,64.1,53.3,30.12,North,0,0.0,0.0,68,0.00,,,0.00,WUHU216HW,2013-05-14 09:22:00,
2013-05-14 05:27:00,63.9,53.2,30.12,North,0,0.0,0.0,68,0.00,,,0.00,WUHU216HW,2013-05-14 09:27:00,
2013-05-14 05:32:00,63.7,53.0,30.12,North,0,0.0,0.0,68,0.00,,,0.00,WUHU216HW,2013-05-14 09:32:00,
2013-05-14 05:37:00,63.7,53.4,30.12,North,0,0.0,0.0,69,0.00,,,0.00,WUHU216HW,2013-05-14 09:37:00,
2013-05-14 05:42:00,63.5,53.2,30.12,North,0,0.0,0.0,69,0.00,,,0.00,WUHU216HW,2013-05-14 09:42:00,
2013-05-14 05:47:00,63.4,53.0,30.12,North,0,0.0,0.0,69,0.00,,,0.00,WUHU216HW,2013-05-14 09:47:00,
2013-05-14 05:52:00,63.2,52.8,30.13,North,0,0.0,0.0,69,0.00,,,0.00,WUHU216HW,2013-05-14 09:52:00,
2013-05-14 05:57:00,63.2,52.8,30.13,North,0,0.0,0.0,69,0.00,,,0.00,WUHU216HW,2013-05-14 09:57:00,
2013-05-14 06:02:00,63.0,53.1,30.13,North,0,0.0,0.0,70,0.00,,,0.00,WUHU216HW,2013-05-14 10:02:00,
2013-05-14 06:07:00,63.0,53.1,30.13,North,0,0.0,0.0,70,0.00,,,0.00,WUHU216HW,2013-05-14 10:07:00,
2013-05-14 06:12:00,62.8,52.9,30.13,North,0,0.0,0.0,70,0.00,,,0.00,WUHU216HW,2013-05-14 10:12:00,
2013-05-14 06:17:00,62.8,52.9,30.13,North,0,0.0,0.0,70,0.00,,,0.00,WUHU216HW,2013-05-14 10:17:00,
2013-05-14 06:22:00,62.8,52.9,30.13,North,0,0.0,0.0,70,0.00,,,0.00,WUHU216HW,2013-05-14 10:22:00,
2013-05-14 06:27:00,62.8,52.9,30.13,North,0,0.0,0.0,70,0.00,,,0.00,WUHU216HW,2013-05-14 10:27:00,
2013-05-14 06:32:00,63.0,53.1,30.14,North,0,0.0,0.0,70,0.00,,,0.00,WUHU216HW,2013-05-14 10:32:00,
2013-05-14 06:37:00,63.0,53.1,30.14,North,0,0.0,0.0,70,0.00,,,0.00,WUHU216HW,2013-05-14 10:37:00,
2013-05-14 06:42:00,63.0,52.7,30.14,North,0,0.0,0.0,69,0.00,,,0.00,WUHU216HW,2013-05-14 10:42:00,
2013-05-14 06:47:00,63.0,52.7,30.14,North,0,0.0,0.0,69,0.00,,,0.00,WUHU216HW,2013-05-14 10:47:00,
2013-05-14 06:52:00,62.8,52.9,30.15,North,0,0.0,0.0,70,0.00,,,0.00,WUHU216HW,2013-05-14 10:52:00,
2013-05-14 06:57:00,62.6,52.7,30.15,North,0,0.0,0.0,70,0.00,,,0.00,WUHU216HW,2013-05-14 10:57:00,
2013-05-14 07:02:00,62.6,52.7,30.15,North,0,0.0,0.0,70,0.00,,,0.00,WUHU216HW,2013-05-14 11:02:00,
2013-05-14 07:07:00,62.6,52.7,30.15,North,0,0.0,0.0,70,0.00,,,0.00,WUHU216HW,2013-05-14 11:07:00,
2013-05-14 07:12:00,62.6,52.7,30.15,North,0,0.0,0.0,70,0.00,,,0.00,WUHU216HW,2013-05-14 11:12:00,
2013-05-14 07:17:00,62.8,52.9,30.15,North,0,0.0,0.0,70,0.00,,,0.00,WUHU216HW,2013-05-14 11:17:00,
2013-05-14 07:22:00,63.0,53.1,30.16,North,0,0.0,0.0,70,0.00,,,0.00,WUHU216HW,2013-05-14 11:22:00,
2013-05-14 07:27:00,63.2,53.3,30.16,North,0,0.0,0.0,70,0.00,,,0.00,WUHU216HW,2013-05-14 11:27:00,
2013-05-14 07:32:00,63.4,53.5,30.15,North,0,0.0,0.0,70,0.00,,,0.00,WUHU216HW,2013-05-14 11:32:00,
2013-05-14 07:37:00,63.4,53.5,30.15,North,0,0.0,0.0,70,0.00,,,0.00,WUHU216HW,2013-05-14 11:37:00,
2013-05-14 07:42:00,63.4,53.5,30.16,North,0,0.0,0.0,70,0.00,,,0.00,WUHU216HW,2013-05-14 11:42:00,
2013-05-14 07:47:00,63.5,53.2,30.16,North,0,0.0,0.0,69,0.00,,,0.00,WUHU216HW,2013-05-14 11:47:00,
2013-05-14 07:52:00,63.5,53.2,30.16,North,0,0.0,0.0,69,0.00,,,0.00,WUHU216HW,2013-05-14 11:52:00,
2013-05-14 07:57:00,63.7,53.4,30.16,North,0,0.0,0.0,69,0.00,,,0.00,WUHU216HW,2013-05-14 11:57:00,
2013-05-14 08:02:00,63.7,53.4,30.16,North,0,0.0,0.0,69,0.00,,,0.00,WUHU216HW,2013-05-14 12:02:00,
2013-05-14 08:07:00,63.7,53.4,30.16,North,0,0.0,0.0,69,0.00,,,0.00,WUHU216HW,2013-05-14 12:07:00,
2013-05-14 08:12:00,63.9,53.6,30.16,North,0,0.0,0.0,69,0.00,,,0.00,WUHU216HW,2013-05-14 12:12:00,
2013-05-14 08:17:00,64.1,53.3,30.16,North,0,0.0,0.0,68,0.00,,,0.00,WUHU216HW,2013-05-14 12:17:00,
2013-05-14 08:22:00,64.3,53.1,30.16,North,0,0.0,0.0,67,0.00,,,0.00,WUHU216HW,2013-05-14 12:22:00,
2013-05-14 08:27:00,64.4,53.3,30.16,North,0,0.0,0.0,67,0.00,,,0.00,WUHU216HW,2013-05-14 12:27:00,
2013-05-14 08:32:00,64.6,53.0,30.17,North,0,0.0,0.0,66,0.00,,,0.00,WUHU216HW,2013-05-14 12:32:00,
2013-05-14 08:37:00,64.8,53.2,30.17,North,0,0.0,0.0,66,0.00,,,0.00,WUHU216HW,2013-05-14 12:37:00,
2013-05-14 08:42:00,65.2,53.5,30.17,North,0,0.0,0.0,66,0.00,,,0.00,WUHU216HW,2013-05-14 12:42:00,
2013-05-14 08:47:00,65.3,53.3,30.17,North,0,0.0,0.0,65,0.00,,,0.00,WUHU216HW,2013-05-14 12:47:00,
2013-05-14 08:52:00,65.5,53.4,30.17,North,0,0.0,0.0,65,0.00,,,0.00,WUHU216HW,2013-05-14 12:52:00,
2013-05-14 08:57:00,65.9,53.7,30.17,North,0,0.0,0.0,65,0.00,,,0.00,WUHU216HW,2013-05-14 12:57:00,
2013-05-14 09:02:00,66.1,53.5,30.18,North,0,0.0,0.0,64,0.00,,,0.00,WUHU216HW,2013-05-14 13:02:00,
2013-05-14 09:07:00,66.2,53.6,30.18,North,0,0.0,0.0,64,0.00,,,0.00,WUHU216HW,2013-05-14 13:07:00,
2013-05-14 09:12:00,66.6,54.0,30.18,North,0,0.0,0.0,64,0.00,,,0.00,WUHU216HW,2013-05-14 13:12:00,
2013-05-14 09:17:00,66.8,54.2,30.18,North,0,0.0,0.0,64,0.00,,,0.00,WUHU216HW,2013-05-14 13:17:00,
2013-05-14 09:22:00,67.3,54.7,30.18,North,0,0.0,0.0,64,0.00,,,0.00,WUHU216HW,2013-05-14 13:22:00,
2013-05-14 09:27:00,67.7,54.2,30.18,North,0,0.0,0.0,62,0.00,,,0.00,WUHU216HW,2013-05-14 13:27:00,
2013-05-14 09:32:00,68.2,55.1,30.18,North,0,0.0,0.0,63,0.00,,,0.00,WUHU216HW,2013-05-14 13:32:00,
2013-05-14 09:37:00,68.8,55.2,30.18,North,0,0.0,0.0,62,0.00,,,0.00,WUHU216HW,2013-05-14 13:37:00,
2013-05-14 09:42:00,69.5,55.5,30.18,North,0,0.0,0.0,61,0.00,,,0.00,WUHU216HW,2013-05-14 13:42:00,
2013-05-14 09:47:00,70.0,56.0,30.18,North,0,0.0,0.0,61,0.00,,,0.00,WUHU216HW,2013-05-14 13:47:00,
2013-05-14 09:52:00,70.6,55.6,30.18,North,0,0.0,0.0,59,0.00,,,0.00,WUHU216HW,2013-05-14 13:52:00,
2013-05-14 09:57:00,71.3,56.3,30.18,North,0,0.0,0.0,59,0.00,,,0.00,WUHU216HW,2013-05-14 13:57:00,
2013-05-14 10:02:00,72.0,55.9,30.18,North,0,0.0,0.0,57,0.00,,,0.00,WUHU216HW,2013-05-14 14:02:00,
2013-05-14 10:07:00,72.7,56.5,30.18,North,0,0.0,0.0,57,0.00,,,0.00,WUHU216HW,2013-05-14 14:07:00,
2013-05-14 10:12:00,73.3,56.0,30.19,North,0,0.0,0.0,55,0.00,,,0.00,WUHU216HW,2013-05-14 14:12:00,
2013-05-14 10:17:00,73.8,56.0,30.19,North,0,0.0,0.0,54,0.00,,,0.00,WUHU216HW,2013-05-14 14:17:00,
2013-05-14 10:22:00,74.3,56.1,30.19,North,0,0.0,0.0,53,0.00,,,0.00,WUHU216HW,2013-05-14 14:22:00,
2013-05-14 10:27:00,74.9,55.1,30.19,North,0,0.0,0.0,50,0.00,,,0.00,WUHU216HW,2013-05-14 14:27:00,
2013-05-14 10:32:00,75.4,55.6,30.19,North,0,0.0,0.0,50,0.00,,,0.00,WUHU216HW,2013-05-14 14:32:00,
2013-05-14 10:37:00,76.0,56.1,30.19,North,0,0.0,0.0,50,0.00,,,0.00,WUHU216HW,2013-05-14 14:37:00,
2013-05-14 10:42:00,76.7,56.2,30.19,North,0,0.0,0.0,49,0.00,,,0.00,WUHU216HW,2013-05-14 14:42:00,
2013-05-14 10:47:00,76.9,55.1,30.19,North,0,0.0,0.0,47,0.00,,,0.00,WUHU216HW,2013-05-14 14:47:00,
2013-05-14 10:52:00,77.2,54.8,30.20,North,0,0.0,0.0,46,0.00,,,0.00,WUHU216HW,2013-05-14 14:52:00,
2013-05-14 10:57:00,77.6,54.5,30.20,North,0,0.0,0.0,45,0.00,,,0.00,WUHU216HW,2013-05-14 14:57:00,
2013-05-14 11:02:00,77.9,54.8,30.19,North,0,0.0,0.0,45,0.00,,,0.00,WUHU216HW,2013-05-14 15:02:00,
2013-05-14 11:07:00,78.3,55.2,30.19,North,0,0.0,0.0,45,0.00,,,0.00,WUHU216HW,2013-05-14 15:07:00,
2013-05-14 11:12:00,78.5,54.7,30.19,North,0,0.0,0.0,44,0.00,,,0.00,WUHU216HW,2013-05-14 15:12:00,
2013-05-14 11:17:00,78.8,53.8,30.19,North,0,0.0,0.0,42,0.00,,,0.00,WUHU216HW,2013-05-14 15:17:00,
2013-05-14 11:22:00,78.8,53.2,30.19,North,0,0.0,0.0,41,0.00,,,0.00,WUHU216HW,2013-05-14 15:22:00,
2013-05-14 11:27:00,79.0,53.9,30.19,North,0,0.0,0.0,42,0.00,,,0.00,WUHU216HW,2013-05-14 15:27:00,
2013-05-14 11:32:00,79.2,53.5,30.19,North,0,0.0,0.0,41,0.00,,,0.00,WUHU216HW,2013-05-14 15:32:00,
2013-05-14 11:37:00,79.6,54.5,30.19,North,0,0.0,0.0,42,0.00,,,0.00,WUHU216HW,2013-05-14 15:37:00,
2013-05-14 11:42:00,80.1,54.3,30.19,North,0,0.0,0.0,41,0.00,,,0.00,WUHU216HW,2013-05-14 15:42:00,
2013-05-14 11:47:00,79.7,51.0,30.19,North,0,0.0,0.0,37,0.00,,,0.00,WUHU216HW,2013-05-14 15:47:00,
2013-05-14 11:52:00,79.9,52.7,30.19,North,0,0.0,0.0,39,0.00,,,0.00,WUHU216HW,2013-05-14 15:52:00,
2013-05-14 11:57:00,80.3,53.1,30.19,North,0,0.0,0.0,39,0.00,,,0.00,WUHU216HW,2013-05-14 15:57:00,
2013-05-14 12:02:00,80.6,53.4,30.19,North,0,0.0,0.0,39,0.00,,,0.00,WUHU216HW,2013-05-14 16:02:00,
2013-05-14 12:07:00,81.0,53.7,30.19,North,0,0.0,0.0,39,0.00,,,0.00,WUHU216HW,2013-05-14 16:07:00,
2013-05-14 12:12:00,81.2,53.1,30.19,North,0,0.0,0.0,38,0.00,,,0.00,WUHU216HW,2013-05-14 16:12:00,
2013-05-14 12:17:00,81.5,54.2,30.19,North,0,0.0,0.0,39,0.00,,,0.00,WUHU216HW,2013-05-14 16:17:00,
2013-05-14 12:22:00,81.7,52.8,30.19,North,0,0.0,0.0,37,0.00,,,0.00,WUHU216HW,2013-05-14 16:22:00,
2013-05-14 12:27:00,81.9,53.7,30.18,North,0,0.0,0.0,38,0.00,,,0.00,WUHU216HW,2013-05-14 16:27:00,
2013-05-14 12:32:00,81.7,52.8,30.19,North,0,0.0,0.0,37,0.00,,,0.00,WUHU216HW,2013-05-14 16:32:00,
2013-05-14 12:37:00,81.5,53.5,30.19,North,0,0.0,0.0,38,0.00,,,0.00,WUHU216HW,2013-05-14 16:37:00,
2013-05-14 12:42:00,81.5,52.7,30.19,North,0,0.0,0.0,37,0.00,,,0.00,WUHU216HW,2013-05-14 16:42:00,
2013-05-14 12:47:00,81.0,49.9,30.18,North,0,0.0,0.0,34,0.00,,,0.00,WUHU216HW,2013-05-14 16:47:00,
2013-05-14 12:52:00,81.0,50.6,30.18,North,0,0.0,0.0,35,0.00,,,0.00,WUHU216HW,2013-05-14 16:52:00,
2013-05-14 12:57:00,81.4,51.0,30.18,North,0,0.0,0.0,35,0.00,,,0.00,WUHU216HW,2013-05-14 16:57:00,
2013-05-14 13:02:00,81.4,51.7,30.18,North,0,0.0,0.0,36,0.00,,,0.00,WUHU216HW,2013-05-14 17:02:00,
2013-05-14 13:07:00,81.4,51.0,30.18,North,0,0.0,0.0,35,0.00,,,0.00,WUHU216HW,2013-05-14 17:07:00,
2013-05-14 13:12:00,81.4,52.5,30.18,North,0,0.0,0.0,37,0.00,,,0.00,WUHU216HW,2013-05-14 17:12:00,
2013-05-14 13:17:00,81.5,52.7,30.18,North,0,0.0,0.0,37,0.00,,,0.00,WUHU216HW,2013-05-14 17:17:00,
2013-05-14 13:22:00,81.4,51.0,30.18,North,0,0.0,0.0,35,0.00,,,0.00,WUHU216HW,2013-05-14 17:22:00,
2013-05-14 13:27:00,81.0,49.9,30.18,North,0,0.0,0.0,34,0.00,,,0.00,WUHU216HW,2013-05-14 17:27:00,
2013-05-14 13:32:00,81.2,50.0,30.17,North,0,0.0,0.0,34,0.00,,,0.00,WUHU216HW,2013-05-14 17:32:00,
2013-05-14 13:37:00,81.4,50.1,30.18,North,0,0.0,0.0,34,0.00,,,0.00,WUHU216HW,2013-05-14 17:37:00,
2013-05-14 13:42:00,81.0,49.9,30.17,North,0,0.0,0.0,34,0.00,,,0.00,WUHU216HW,2013-05-14 17:42:00,
2013-05-14 13:47:00,81.2,50.8,30.17,North,0,0.0,0.0,35,0.00,,,0.00,WUHU216HW,2013-05-14 17:47:00,
2013-05-14 13:52:00,81.5,52.7,30.17,North,0,0.0,0.0,37,0.00,,,0.00,WUHU216HW,2013-05-14 17:52:00,
2013-05-14 13:57:00,81.7,52.8,30.17,North,0,0.0,0.0,37,0.00,,,0.00,WUHU216HW,2013-05-14 17:57:00,
2013-05-14 14:02:00,81.9,52.2,30.16,North,0,0.0,0.0,36,0.00,,,0.00,WUHU216HW,2013-05-14 18:02:00,
2013-05-14 14:07:00,81.7,50.4,30.16,North,0,0.0,0.0,34,0.00,,,0.00,WUHU216HW,2013-05-14 18:07:00,
2013-05-14 14:12:00,81.7,51.2,30.16,North,0,0.0,0.0,35,0.00,,,0.00,WUHU216HW,2013-05-14 18:12:00,
2013-05-14 14:17:00,81.7,50.4,30.16,North,0,0.0,0.0,34,0.00,,,0.00,WUHU216HW,2013-05-14 18:17:00,
2013-05-14 14:22:00,81.7,51.2,30.16,North,0,0.0,0.0,35,0.00,,,0.00,WUHU216HW,2013-05-14 18:22:00,
2013-05-14 14:27:00,81.7,50.4,30.15,North,0,0.0,0.0,34,0.00,,,0.00,WUHU216HW,2013-05-14 18:27:00,
2013-05-14 14:32:00,81.9,51.4,30.16,North,0,0.0,0.0,35,0.00,,,0.00,WUHU216HW,2013-05-14 18:32:00,
2013-05-14 14:37:00,82.1,50.8,30.15,North,0,0.0,0.0,34,0.00,,,0.00,WUHU216HW,2013-05-14 18:37:00,
2013-05-14 14:42:00,82.1,50.8,30.15,North,0,0.0,0.0,34,0.00,,,0.00,WUHU216HW,2013-05-14 18:42:00,
2013-05-14 14:47:00,81.9,50.6,30.15,North,0,0.0,0.0,34,0.00,,,0.00,WUHU216HW,2013-05-14 18:47:00,
2013-05-14 14:52:00,81.9,50.6,30.14,North,0,0.0,0.0,34,0.00,,,0.00,WUHU216HW,2013-05-14 18:52:00,
2013-05-14 14:57:00,82.1,50.8,30.14,North,0,0.0,0.0,34,0.00,,,0.00,WUHU216HW,2013-05-14 18:57:00,
2013-05-14 15:02:00,82.1,50.8,30.14,North,0,0.0,0.0,34,0.00,,,0.00,WUHU216HW,2013-05-14 19:02:00,
2013-05-14 15:07:00,82.3,51.0,30.14,North,0,0.0,0.0,34,0.00,,,0.00,WUHU216HW,2013-05-14 19:07:00,
2013-05-14 15:12:00,82.3,49.3,30.14,North,0,0.0,0.0,32,0.00,,,0.00,WUHU216HW,2013-05-14 19:12:00,
2013-05-14 15:17:00,82.1,50.0,30.14,North,0,0.0,0.0,33,0.00,,,0.00,WUHU216HW,2013-05-14 19:17:00,
2013-05-14 15:22:00,82.1,49.1,30.13,North,0,0.0,0.0,32,0.00,,,0.00,WUHU216HW,2013-05-14 19:22:00,
2013-05-14 15:27:00,82.3,51.0,30.13,North,0,0.0,0.0,34,0.00,,,0.00,WUHU216HW,2013-05-14 19:27:00,
2013-05-14 15:32:00,82.3,49.3,30.13,North,0,0.0,0.0,32,0.00,,,0.00,WUHU216HW,2013-05-14 19:32:00,
2013-05-14 15:37:00,82.3,49.3,30.13,North,0,0.0,0.0,32,0.00,,,0.00,WUHU216HW,2013-05-14 19:37:00,
2013-05-14 15:42:00,82.3,50.1,30.13,North,0,0.0,0.0,33,0.00,,,0.00,WUHU216HW,2013-05-14 19:42:00,
2013-05-14 15:47:00,82.1,50.0,30.13,North,0,0.0,0.0,33,0.00,,,0.00,WUHU216HW,2013-05-14 19:47:00,
2013-05-14 15:52:00,82.1,49.1,30.12,North,0,0.0,0.0,32,0.00,,,0.00,WUHU216HW,2013-05-14 19:52:00,
2013-05-14 15:57:00,82.1,49.1,30.12,North,0,0.0,0.0,32,0.00,,,0.00,WUHU216HW,2013-05-14 19:57:00,
2013-05-14 16:02:00,82.1,49.1,30.12,North,0,0.0,0.0,32,0.00,,,0.00,WUHU216HW,2013-05-14 20:02:00,
2013-05-14 16:07:00,82.1,50.0,30.12,North,0,0.0,0.0,33,0.00,,,0.00,WUHU216HW,2013-05-14 20:07:00,
2013-05-14 16:12:00,82.1,50.0,30.12,North,0,0.0,0.0,33,0.00,,,0.00,WUHU216HW,2013-05-14 20:12:00,
2013-05-14 16:17:00,82.1,50.8,30.12,North,0,0.0,0.0,34,0.00,,,0.00,WUHU216HW,2013-05-14 20:17:00,
2013-05-14 16:22:00,82.3,50.1,30.11,North,0,0.0,0.0,33,0.00,,,0.00,WUHU216HW,2013-05-14 20:22:00,
2013-05-14 16:27:00,82.4,50.2,30.11,North,0,0.0,0.0,33,0.00,,,0.00,WUHU216HW,2013-05-14 20:27:00,
2013-05-14 16:32:00,82.3,49.3,30.11,North,0,0.0,0.0,32,0.00,,,0.00,WUHU216HW,2013-05-14 20:32:00,
2013-05-14 16:37:00,82.3,49.3,30.11,North,0,0.0,0.0,32,0.00,,,0.00,WUHU216HW,2013-05-14 20:37:00,
2013-05-14 16:42:00,82.1,50.0,30.11,North,0,0.0,0.0,33,0.00,,,0.00,WUHU216HW,2013-05-14 20:42:00,
2013-05-14 16:47:00,82.1,50.8,30.11,North,0,0.0,0.0,34,0.00,,,0.00,WUHU216HW,2013-05-14 20:47:00,
2013-05-14 16:52:00,82.3,50.1,30.10,North,0,0.0,0.0,33,0.00,,,0.00,WUHU216HW,2013-05-14 20:52:00,
2013-05-14 16:57:00,82.1,49.1,30.11,North,0,0.0,0.0,32,0.00,,,0.00,WUHU216HW,2013-05-14 20:57:00,
2013-05-14 17:02:00,82.1,49.1,30.11,North,0,0.0,0.0,32,0.00,,,0.00,WUHU216HW,2013-05-14 21:02:00,
2013-05-14 17:07:00,81.9,49.1,30.11,North,0,0.0,0.0,32,0.00,,,0.00,WUHU216HW,2013-05-14 21:07:00,
2013-05-14 17:12:00,81.9,49.1,30.10,North,0,0.0,0.0,32,0.00,,,0.00,WUHU216HW,2013-05-14 21:12:00,
2013-05-14 17:17:00,81.9,49.1,30.10,North,0,0.0,0.0,32,0.00,,,0.00,WUHU216HW,2013-05-14 21:17:00,
2013-05-14 17:22:00,82.1,50.0,30.10,North,0,0.0,0.0,33,0.00,,,0.00,WUHU216HW,2013-05-14 21:22:00,
2013-05-14 17:27:00,82.1,50.0,30.10,North,0,0.0,0.0,33,0.00,,,0.00,WUHU216HW,2013-05-14 21:27:00,
2013-05-14 17:32:00,82.1,49.1,30.10,North,0,0.0,0.0,32,0.00,,,0.00,WUHU216HW,2013-05-14 21:32:00,
2013-05-14 17:37:00,81.9,51.4,30.10,North,0,0.0,0.0,35,0.01,,,0.00,WUHU216HW,2013-05-14 21:37:00,
2013-05-14 17:42:00,81.5,51.1,30.10,North,0,0.0,0.0,35,0.01,,,0.01,WUHU216HW,2013-05-14 21:42:00,
2013-05-14 17:47:00,81.0,52.9,30.10,North,0,0.0,0.0,38,0.01,,,0.01,WUHU216HW,2013-05-14 21:47:00,
2013-05-14 17:52:00,80.6,50.3,30.10,North,0,0.0,0.0,35,0.01,,,0.01,WUHU216HW,2013-05-14 21:52:00,
2013-05-14 17:57:00,80.3,52.3,30.10,North,0,0.0,0.0,38,0.01,,,0.01,WUHU216HW,2013-05-14 21:57:00,
2013-05-14 18:02:00,79.9,52.7,30.10,North,0,0.0,0.0,39,0.01,,,0.01,WUHU216HW,2013-05-14 22:02:00,
2013-05-14 18:07:00,79.7,51.9,30.10,North,0,0.0,0.0,38,0.01,,,0.01,WUHU216HW,2013-05-14 22:07:00,
2013-05-14 18:12:00,79.9,50.4,30.10,North,0,0.0,0.0,36,0.01,,,0.01,WUHU216HW,2013-05-14 22:12:00,
2013-05-14 18:17:00,79.9,52.7,30.10,North,0,0.0,0.0,39,0.01,,,0.01,WUHU216HW,2013-05-14 22:17:00,
2013-05-14 18:22:00,79.7,51.9,30.10,North,0,0.0,0.0,38,0.01,,,0.01,WUHU216HW,2013-05-14 22:22:00,
2013-05-14 18:27:00,79.7,51.0,30.10,North,0,0.0,0.0,37,0.01,,,0.01,WUHU216HW,2013-05-14 22:27:00,
2013-05-14 18:32:00,79.7,51.0,30.09,North,0,0.0,0.0,37,0.01,,,0.01,WUHU216HW,2013-05-14 22:32:00,
2013-05-14 18:37:00,79.7,51.9,30.09,North,0,0.0,0.0,38,0.00,,,0.01,WUHU216HW,2013-05-14 22:37:00,
2013-05-14 18:42:00,79.6,52.5,30.10,North,0,0.0,0.0,39,0.00,,,0.01,WUHU216HW,2013-05-14 22:42:00,
2013-05-14 18:47:00,79.7,53.4,30.09,North,0,0.0,0.0,40,0.00,,,0.01,WUHU216HW,2013-05-14 22:47:00,
2013-05-14 18:52:00,79.6,53.2,30.09,North,0,0.0,0.0,40,0.00,,,0.01,WUHU216HW,2013-05-14 22:52:00,
2013-05-14 18:57:00,79.6,53.8,30.09,North,0,0.0,0.0,41,0.00,,,0.01,WUHU216HW,2013-05-14 22:57:00,
2013-05-14 19:02:00,79.4,53.6,30.10,North,0,0.0,0.0,41,0.00,,,0.01,WUHU216HW,2013-05-14 23:02:00,
2013-05-14 19:07:00,79.2,53.5,30.10,North,0,0.0,0.0,41,0.00,,,0.01,WUHU216HW,2013-05-14 23:07:00,
2013-05-14 19:12:00,79.2,53.5,30.10,North,0,0.0,0.0,41,0.00,,,0.01,WUHU216HW,2013-05-14 23:12:00,
2013-05-14 19:17:00,79.0,53.9,30.10,North,0,0.0,0.0,42,0.00,,,0.01,WUHU216HW,2013-05-14 23:17:00,
2013-05-14 19:22:00,78.8,54.4,30.10,North,0,0.0,0.0,43,0.00,,,0.01,WUHU216HW,2013-05-14 23:22:00,
2013-05-14 19:27:00,78.5,54.1,30.11,North,0,0.0,0.0,43,0.00,,,0.01,WUHU216HW,2013-05-14 23:27:00,
2013-05-14 19:32:00,78.3,53.9,30.11,North,0,0.0,0.0,43,0.00,,,0.01,WUHU216HW,2013-05-14 23:32:00,
2013-05-14 19:37:00,78.1,53.7,30.11,North,0,0.0,0.0,43,0.00,,,0.01,WUHU216HW,2013-05-14 23:37:00,
2013-05-14 19:42:00,78.1,54.4,30.11,North,0,0.0,0.0,44,0.00,,,0.01,WUHU216HW,2013-05-14 23:42:00,
2013-05-14 19:47:00,77.8,54.0,30.11,North,0,0.0,0.0,44,0.00,,,0.01,WUHU216HW,2013-05-14 23:47:00,
2013-05-14 19:52:00,77.6,53.9,30.11,North,0,0.0,0.0,44,0.00,,,0.01,WUHU216HW,2013-05-14 23:52:00,
2013-05-14 19:57:00,77.4,54.4,30.12,North,0,0.0,0.0,45,0.00,,,0.01,WUHU216HW,2013-05-14 23:57:00,
2013-05-14 20:02:00,77.2,54.2,30.12,North,0,0.0,0.0,45,0.00,,,0.01,WUHU216HW,2013-05-15 00:02:00,
2013-05-14 20:07:00,77.0,54.0,30.12,North,0,0.0,0.0,45,0.00,,,0.01,WUHU216HW,2013-05-15 00:07:00,
2013-05-14 20:12:00,76.9,53.8,30.12,North,0,0.0,0.0,45,0.00,,,0.01,WUHU216HW,2013-05-15 00:12:00,
2013-05-14 20:17:00,76.7,54.3,30.12,North,0,0.0,0.0,46,0.00,,,0.01,WUHU216HW,2013-05-15 00:17:00,
2013-05-14 20:22:00,76.3,54.0,30.12,North,0,0.0,0.0,46,0.00,,,0.01,WUHU216HW,2013-05-15 00:22:00,
2013-05-14 20:27:00,76.1,53.8,30.13,North,0,0.0,0.0,46,0.00,,,0.01,WUHU216HW,2013-05-15 00:27:00,
2013-05-14 20:32:00,76.0,54.3,30.13,North,0,0.0,0.0,47,0.00,,,0.01,WUHU216HW,2013-05-15 00:32:00,
2013-05-14 20:37:00,75.8,54.1,30.13,North,0,0.0,0.0,47,0.00,,,0.01,WUHU216HW,2013-05-15 00:37:00,
2013-05-14 20:42:00,75.6,53.9,30.13,North,0,0.0,0.0,47,0.00,,,0.01,WUHU216HW,2013-05-15 00:42:00,
2013-05-14 20:47:00,75.4,54.4,30.13,North,0,0.0,0.0,48,0.00,,,0.01,WUHU216HW,2013-05-15 00:47:00,
2013-05-14 20:52:00,75.2,54.2,30.14,North,0,0.0,0.0,48,0.00,,,0.01,WUHU216HW,2013-05-15 00:52:00,
2013-05-14 20:57:00,75.2,54.2,30.14,North,0,0.0,0.0,48,0.00,,,0.01,WUHU216HW,2013-05-15 00:57:00,
2013-05-14 21:02:00,75.1,54.6,30.15,North,0,0.0,0.0,49,0.00,,,0.01,WUHU216HW,2013-05-15 01:02:00,
2013-05-14 21:07:00,74.9,54.5,30.14,North,0,0.0,0.0,49,0.00,,,0.01,WUHU216HW,2013-05-15 01:07:00,
2013-05-14 21:12:00,74.9,54.5,30.15,North,0,0.0,0.0,49,0.00,,,0.01,WUHU216HW,2013-05-15 01:12:00,
2013-05-14 21:17:00,74.5,54.1,30.15,North,0,0.0,0.0,49,0.00,,,0.01,WUHU216HW,2013-05-15 01:17:00,
2013-05-14 21:22:00,74.5,54.7,30.16,North,0,0.0,0.0,50,0.00,,,0.01,WUHU216HW,2013-05-15 01:22:00,
2013-05-14 21:27:00,74.2,54.4,30.16,North,0,0.0,0.0,50,0.00,,,0.01,WUHU216HW,2013-05-15 01:27:00,
2013-05-14 21:32:00,74.2,54.9,30.16,North,0,0.0,0.0,51,0.00,,,0.01,WUHU216HW,2013-05-15 01:32:00,
2013-05-14 21:37:00,74.2,54.9,30.16,North,0,0.0,0.0,51,0.00,,,0.01,WUHU216HW,2013-05-15 01:37:00,
2013-05-14 21:42:00,73.8,54.6,30.16,North,0,0.0,0.0,51,0.00,,,0.01,WUHU216HW,2013-05-15 01:42:00,
2013-05-14 21:47:00,73.8,54.6,30.16,North,0,0.0,0.0,51,0.00,,,0.01,WUHU216HW,2013-05-15 01:47:00,
2013-05-14 21:52:00,73.8,54.6,30.17,North,0,0.0,0.0,51,0.00,,,0.01,WUHU216HW,2013-05-15 01:52:00,
2013-05-14 21:57:00,73.6,54.8,30.17,North,0,0.0,0.0,52,0.00,,,0.01,WUHU216HW,2013-05-15 01:57:00,
2013-05-14 22:02:00,73.6,54.8,30.17,North,0,0.0,0.0,52,0.00,,,0.01,WUHU216HW,2013-05-15 02:02:00,
2013-05-14 22:07:00,73.3,54.5,30.17,North,0,0.0,0.0,52,0.00,,,0.01,WUHU216HW,2013-05-15 02:07:00,
2013-05-14 22:12:00,73.1,54.4,30.17,North,0,0.0,0.0,52,0.00,,,0.01,WUHU216HW,2013-05-15 02:12:00,
2013-05-14 22:17:00,72.9,54.6,30.17,North,0,0.0,0.0,53,0.00,,,0.01,WUHU216HW,2013-05-15 02:17:00,
2013-05-14 22:22:00,72.9,54.6,30.17,North,0,0.0,0.0,53,0.00,,,0.01,WUHU216HW,2013-05-15 02:22:00,
2013-05-14 22:27:00,72.9,54.6,30.17,North,0,0.0,0.0,53,0.00,,,0.01,WUHU216HW,2013-05-15 02:27:00,
2013-05-14 22:32:00,72.9,54.6,30.18,North,0,0.0,0.0,53,0.00,,,0.01,WUHU216HW,2013-05-15 02:32:00,
2013-05-14 22:37:00,72.7,54.6,30.18,North,0,0.0,0.0,53,0.00,,,0.01,WUHU216HW,2013-05-15 02:37:00,
2013-05-14 22:42:00,72.7,55.0,30.18,North,0,0.0,0.0,54,0.00,,,0.01,WUHU216HW,2013-05-15 02:42:00,
2013-05-14 22:47:00,72.5,54.8,30.18,North,0,0.0,0.0,54,0.00,,,0.01,WUHU216HW,2013-05-15 02:47:00,
2013-05-14 22:52:00,72.4,54.7,30.18,North,0,0.0,0.0,54,0.00,,,0.01,WUHU216HW,2013-05-15 02:52:00,
2013-05-14 22:57:00,72.4,55.2,30.18,North,0,0.0,0.0,55,0.00,,,0.01,WUHU216HW,2013-05-15 02:57:00,
2013-05-14 23:03:00,72.0,54.9,30.18,North,0,0.0,0.0,55,0.00,,,0.01,WUHU216HW,2013-05-15 03:03:00,
2013-05-14 23:08:00,72.0,54.9,30.18,North,0,0.0,0.0,55,0.00,,,0.01,WUHU216HW,2013-05-15 03:08:00,
2013-05-14 23:13:00,71.8,54.7,30.18,North,0,0.0,0.0,55,0.00,,,0.01,WUHU216HW,2013-05-15 03:13:00,
2013-05-14 23:18:00,71.6,55.1,30.18,North,0,0.0,0.0,56,0.00,,,0.01,WUHU216HW,2013-05-15 03:18:00,
2013-05-14 23:23:00,71.6,55.1,30.18,North,0,0.0,0.0,56,0.00,,,0.01,WUHU216HW,2013-05-15 03:23:00,
2013-05-14 23:28:00,71.5,54.9,30.18,North,0,0.0,0.0,56,0.00,,,0.01,WUHU216HW,2013-05-15 03:28:00,
2013-05-14 23:33:00,71.1,55.1,30.18,North,0,0.0,0.0,57,0.00,,,0.01,WUHU216HW,2013-05-15 03:33:00,
2013-05-14 23:38:00,70.9,54.9,30.18,North,0,0.0,0.0,57,0.00,,,0.01,WUHU216HW,2013-05-15 03:38:00,
2013-05-14 23:43:00,70.9,55.5,30.18,North,0,0.0,0.0,58,0.00,,,0.01,WUHU216HW,2013-05-15 03:43:00,
2013-05-14 23:48:00,70.7,55.3,30.18,North,0,0.0,0.0,58,0.00,,,0.01,WUHU216HW,2013-05-15 03:48:00,
2013-05-14 23:53:00,70.6,55.1,30.18,North,0,0.0,0.0,58,0.00,,,0.01,WUHU216HW,2013-05-15 03:53:00,
2013-05-14 23:58:00,70.6,55.1,30.18,North,0,0.0,0.0,58,0.00,,,0.01,WUHU216HW,2013-05-15 03:58:00,